Location: Bagnara
(41.0500°N, 14.7833°E)
Time: 00:14:03
(UTC+00:00)

Meteor 2-3 Rocket - Pass Details

Date: 29 October 2021
Orbit: 842 x 885 km, 81.2° (Epoch: 28 November)

Event Time Altitude Azimuth Distance (km) Brightness Sun altitude
Rises 18:15:44 0° 358° (N) 3,425 6.9 -26.1°
Reaches altitude 10° 18:18:22 10° 7° (N) 2,491 6.1 -26.6°
Enters shadow 18:19:29 16° 14° (NNE) 2,123 5.7 -26.8°
